Location: Little Buffalo State Park
(40.4572°N, 77.1689°W)
Time: 16:33:15
(UTC-04:00)

Tiangong 2 - Visible Passes

Search period start: 23 March 2019 00:00
Search period end: 02 April 2019 00:00
Orbit: 380 x 390 km, 42.8° (Epoch: 23 March)

Date Brightness Start Highest point End Pass type
(mag) Time Alt. Az. Time Alt. Az. Time Alt. Az.
23 Mar 2.2 05:55:33 27° SW 05:55:52 27° SSW 05:58:37 10° SSE visible
24 Mar 4.0 04:59:20 11° SE 04:59:20 11° SE 04:59:32 10° SE visible
28 Mar 3.6 20:44:03 10° S 20:44:07 10° S 20:44:07 10° S visible
29 Mar 3.3 21:19:34 10° SW 21:20:30 17° SW 21:20:30 17° SW visible
30 Mar 2.4 20:20:33 10° SSW 20:23:06 23° SSE 20:24:26 17° ESE visible
30 Mar 4.2 21:56:29 10° WSW 21:56:41 11° WSW 21:56:41 11° WSW visible
31 Mar 1.0 20:56:58 10° WSW 21:00:05 65° SSE 21:00:26 58° ESE visible
01 Apr 1.7 19:57:39 10° SW 20:00:35 39° SSE 20:03:34 10° E visible
01 Apr 2.5 21:34:10 10° W 21:36:16 37° WNW 21:36:16 37° WNW visible
